Shon Levy

Chefscout - Maccabi Tel Aviv
22 Feb 2028
Dienstag
Verarbeitung

Persönlichkeit

Anpassungsfähigkeit (14) Ehrgeiz (9) Kontroverse (16) Loyalität (12) Druck (13) Professionalität (6) Fairness (7) Temperament (18)

Profil

Trainerstil Demokratisch
Lizenz Kontinentale Pro
Entschlossenheit 9
Menschenführung 10
Motivation 8
Disziplin 13
Arbeitszufriedenheit
100%
Ermüdung
0%
Rolle Chefscout
Gehalt 99.3K p/W
Vertrag 14.03.2029

Leistung

Verhalten Gut
Trainingseffektivität
50%
Spielerentwicklung
65%
Verletzungsprävention
45%
Taktische Umsetzung
55%

Letzte Ereignisse

Spieler begutachtet jetzt
Nahm an einer Scouting-Besprechung teil jetzt
Nahm an einer Scouting-Besprechung teil jetzt
Nahm an einer Scouting-Besprechung teil jetzt
Empfahl ein Transferziel jetzt
Spieler begutachtet 7T her
Spieler begutachtet 7T her
Spieler begutachtet 7T her

Aktuell beobachtet

281
Spieler Verein Status Fähigkeit Vertrauen Beobachtet Zuletzt beobachtet Letzte Stimme
Azor Matusiwa Ipswich Town Aktiv 128 / 150 40% 3 21.02.2028 -
Brad Hills Stockport County Aktiv 119 / 130 40% 1 21.02.2028 -
Stephen Eustáquio Notts County Aktiv 141 / 142 40% 1 20.02.2028 -
Mattie Pollock Watford Aktiv 142 / 130 40% 1 20.02.2028 -
James McConnell Swindon Town Aktiv 116 / 140 40% 1 20.02.2028 -
Alex Matos Swindon Town Aktiv 129 / 136 40% 1 20.02.2028 -
Vinicius Tobias Zorya Aktiv 126 / 140 40% 3 19.02.2028 -
Mathias Tønnessen Tromso Aktiv 113 / 119 40% 1 19.02.2028 -
Dan Ballard Cardiff City Aktiv 152 / 143 40% 2 18.02.2028 -
Idris El Mizouni Leyton Orient Aktiv 113 / 114 40% 1 18.02.2028 -
Mandla Erasmus SuperSport United Aktiv 121 / 133 40% 2 16.02.2028 -
Adrià Altimira Deportivo La Coruña Aktiv 150 / 134 40% 1 16.02.2028 -
Williams Manyama SuperSport United Aktiv 131 / 110 40% 4 15.02.2028 -
Bryan Ramírez FC Cincinnati Aktiv 141 / 116 40% 2 15.02.2028 -
Alfie Doughty Millwall Aktiv 142 / 129 40% 2 14.02.2028 -
Atsuki Ito Bolton Wanderers Aktiv 117 / 122 40% 1 14.02.2028 -
Georgie Gent Barnsley Aktiv 130 / 117 40% 1 14.02.2028 -
Hayden Matthews Crawley Town Aktiv 115 / 120 40% 1 14.02.2028 -
Lamare Bogarde Reading Aktiv 145 / 136 40% 1 13.02.2028 -
Calvin Ramsay Gillingham Aktiv 136 / 130 40% 1 13.02.2028 -
Dmitry Pestryakov Dinamo Moscow Aktiv 131 / 135 40% 3 12.02.2028 -
Terry Devlin Accrington Stanley Aktiv 139 / 125 40% 2 12.02.2028 -
Arsen Adamov Akhmat Grozny Aktiv 138 / 122 40% 2 10.02.2028 -
Johnly Yfeko Exeter City Aktiv 130 / 119 40% 1 09.02.2028 -
Oscar Fraulo Derby County Aktiv 119 / 128 40% 1 09.02.2028 -
Victor Torp Coventry City Aktiv 126 / 137 40% 1 09.02.2028 -
Kenny Tete Fulham Aktiv 144 / 151 40% 3 08.02.2028 -
Joel Poiso Penarol Aktiv 120 / 107 40% 1 06.02.2028 -
Junior Tchamadeu Stoke City Aktiv 124 / 127 40% 1 05.02.2028 -
Kyle Jurgens SuperSport United Aktiv 115 / 131 40% 1 04.02.2028 -
Jenson Metcalfe Bradford City Aktiv 119 / 133 40% 1 04.02.2028 -
Kamogelo Sebelebele Orlando Pirates Aktiv 115 / 135 40% 1 31.01.2028 -
Trey Nyoni Rotherham United Aktiv 128 / 141 40% 1 31.01.2028 -
Tobías Leiva Estudiantes Aktiv 111 / 110 40% 4 25.01.2028 -
Ivan Varfolomeev Lincoln City Aktiv 130 / 131 40% 1 25.01.2028 -
Nicolás Tripichio San Lorenzo Verloren 121 / 132 40% 1 24.01.2028 -
Matías Pérez Racing Club Verloren 140 / 118 40% 1 24.01.2028 -
Marquinhos Spartak Moscow Aktiv 139 / 145 40% 2 18.01.2028 -
Alesson Torpedo Moscow Aktiv 131 / 135 40% 1 18.01.2028 -
Josh Nichols Tranmere Rovers Aktiv 125 / 134 40% 1 11.01.2028 -
Malibongwe Khoza Mamelodi Sundowns Aktiv 120 / 136 40% 1 11.01.2028 -
Miguel Vítor Hapoel Beer Sheva Verloren 111 / 121 62% 1 10.01.2028 Befürworten
Lucas Ventura Hapoel Beer Sheva Aktiv 135 / 135 62% 1 04.01.2028 Befürworten
Taiwo Awoniyi Bournemouth Aktiv 132 / 150 40% 1 01.01.2028 -
Lewis Morgan SuperSport United Aktiv 146 / 125 40% 4 31.12.2027 -
Braian Aranda Agropecuario Argentino Aktiv 104 / 114 40% 3 31.12.2027 -
Cristian Graciano Junior Aktiv 107 / 121 40% 1 31.12.2027 -
Manuel Duarte Barracas Central Aktiv 138 / 132 40% 4 30.12.2027 -
Charlie Savage Reading Aktiv 130 / 108 40% 1 30.12.2027 -
Simen Bolkan Nordli Rosenborg Aktiv 112 / 123 40% 1 30.12.2027 -
Gastón Lodico Racing Club Aktiv 115 / 135 40% 3 29.12.2027 -
Edwuin Cetré Estudiantes Aktiv 120 / 135 40% 1 26.12.2027 -
Juan Infante Atlético Tucumán Aktiv 122 / 121 40% 4 24.12.2027 -
Bernard Tekpetey Ludogorets Aktiv 132 / 122 40% 1 24.12.2027 -
Aarón Molinas Defensa y Justicia Aktiv 116 / 134 40% 2 20.12.2027 -
Marcelino Moreno Lanús Verloren 144 / 120 40% 3 20.12.2027 -
Antonio Galeano Remo Stars Aktiv 118 / 128 40% 7 19.12.2027 -
Ángel Correa River Plate Verloren 137 / 148 40% 5 19.12.2027 -
Alexis Cuello San Lorenzo Aktiv 118 / 134 40% 4 18.12.2027 -
Pavel Bucha FC Cincinnati Verloren 141 / 120 40% 2 18.12.2027 -
Gustavo Del Prete San Lorenzo Aktiv 126 / 124 40% 1 17.12.2027 -
Joaquín Gho Argentinos Juniors Aktiv 133 / 136 40% 3 16.12.2027 -
Duvan Rangel La Equidad Verloren 138 / 138 40% 6 15.12.2027 -
Franco Ibarra Rosario Central Aktiv 137 / 122 40% 2 15.12.2027 -
Daniel Herrera San Lorenzo Aktiv 110 / 119 40% 2 15.12.2027 -
Jacques Ekomié Wrexham Aktiv 131 / 131 40% 1 15.12.2027 -
Facundo Altamira Godoy Cruz Aktiv 117 / 122 40% 1 11.12.2027 -
Brandon Powell Wigan Athletic Aktiv 102 / 119 40% 1 11.12.2027 -
César Ibáñez Huracán Aktiv 119 / 126 40% 2 09.12.2027 -
Luciano Cosentino Wanderers Aktiv 130 / 130 40% 3 07.12.2027 -
Alexander Warneryd Tromso Aktiv 102 / 108 40% 1 07.12.2027 -
Imran Oulad Omar Dinamo Batumi Aktiv 137 / 108 40% 3 04.12.2027 -
Emil Ceïde Rosenborg Aktiv 142 / 113 40% 4 04.12.2027 -
Samuel Lucero Defensa y Justicia Aktiv 110 / 123 40% 1 04.12.2027 -
Sondre Auklend Bodo/Glimt Aktiv 144 / 136 40% 1 04.12.2027 -
Juan José Arias Real Salt Lake Aktiv 110 / 132 40% 2 02.12.2027 -
Alan Lescano Argentinos Juniors Aktiv 135 / 127 40% 4 01.12.2027 -
Petar Stanić Ludogorets Aktiv 153 / 141 40% 4 28.11.2027 -
Alejo Cruz Juventud Aktiv 130 / 117 40% 1 28.11.2027 -
Emanuel Coronel Rosario Central Aktiv 118 / 139 40% 2 27.11.2027 -
Ulises Sánchez Gimnasia y Esgrima Aktiv 111 / 131 40% 1 27.11.2027 -
Joseph Paintsil LA Galaxy Aktiv 145 / 115 40% 1 26.11.2027 -
Lautaro Guzmán Lanús Aktiv 131 / 120 40% 1 26.11.2027 -
Tiago Palacios Estudiantes Aktiv 146 / 123 40% 3 25.11.2027 -
Håkon Evjen Molde Aktiv 125 / 143 40% 2 23.11.2027 -
Alex Luna Instituto Aktiv 140 / 116 40% 1 21.11.2027 -
Leandro Lozano Boca Juniors Aktiv 131 / 112 40% 1 21.11.2027 -
Kevin Paredes River Plate Aktiv 127 / 126 40% 2 20.11.2027 -
Sere Matsumura Shonan Bellmare Aktiv 122 / 131 40% 2 20.11.2027 -
David Barbona Defensa y Justicia Aktiv 110 / 131 40% 1 20.11.2027 -
César Pérez Defensa y Justicia Aktiv 135 / 113 40% 1 20.11.2027 -
Sasha Marcich Lanús Aktiv 139 / 110 40% 1 16.11.2027 -
Jefry Zapata Danubio Aktiv 112 / 121 40% 3 15.11.2027 -
Sondre Sørli Sarpsborg 08 Aktiv 136 / 124 40% 1 15.11.2027 -
Teruki Hara Nagoya Grampus Aktiv 138 / 115 40% 2 14.11.2027 -
Carlos Palacios Boca Juniors Aktiv 126 / 134 40% 2 14.11.2027 -
Isak Vådebu Tromso Aktiv 116 / 98 40% 1 14.11.2027 -
Jens Hjertø-Dahl Hull City Aktiv 123 / 118 40% 1 14.11.2027 -
Ignacio Perruzzi San Lorenzo Aktiv 112 / 121 40% 1 10.11.2027 -
Marcus Holmgren Pedersen Valerenga Aktiv 132 / 139 40% 1 05.11.2027 -
Gastón Togni Defensa y Justicia Aktiv 122 / 119 40% 4 04.11.2027 -
Vicente Poggi Godoy Cruz Aktiv 140 / 114 40% 3 03.11.2027 -
Tomás Silva Platense Aktiv 120 / 121 40% 2 25.10.2027 -
Santiago González Tigre Aktiv 143 / 122 40% 1 22.10.2027 -
Gonzalo Abrego Godoy Cruz Aktiv 115 / 134 40% 3 19.10.2027 -
Francisco González Metilli Belgrano Aktiv 123 / 116 40% 2 18.10.2027 -
Mateo Mendoza Godoy Cruz Aktiv 134 / 130 40% 1 18.10.2027 -
Tomás Porra Barracas Central Aktiv 105 / 128 40% 2 16.10.2027 -
Sheyko Studer Independiente Rivadavia Aktiv 119 / 130 40% 1 16.10.2027 -
Sebastián Medina Tigre Aktiv 126 / 112 40% 3 14.10.2027 -
Diego García Defensor Sporting Aktiv 108 / 109 40% 2 10.10.2027 -
Jhonatan Candia Barracas Central Aktiv 111 / 112 40% 1 10.10.2027 -
Jarleysom KuPS Aktiv 111 / 102 40% 1 10.10.2027 -
Valentín Moreno Tigre Aktiv 135 / 111 40% 1 10.10.2027 -
Mauro Arambarri River Plate Aktiv 168 / 163 40% 1 08.10.2027 -
Matko Miljevic Racing Club Aktiv 116 / 122 40% 1 07.10.2027 -
Eryc Castillo Alianza Lima Aktiv 128 / 106 40% 1 03.10.2027 -
Franco Nicola Liverpool Montevideo Aktiv 110 / 134 40% 1 29.09.2027 -
Matías Lazo Melgar Aktiv 113 / 116 40% 2 28.09.2027 -
Anton Logi Lúðvíksson Breidablik Aktiv 106 / 126 40% 1 28.09.2027 -
Daniel Bassi Lillestrom Aktiv 134 / 132 40% 1 24.09.2027 -
Renzo Tesuri Atlético Tucumán Aktiv 111 / 114 40% 1 21.09.2027 -
Matías Zaracho Racing Club Aktiv 136 / 124 40% 1 19.09.2027 -
Lucas Agazzi Defensor Sporting Aktiv 112 / 111 40% 1 18.09.2027 -
Kevin Zenón Boca Juniors Aktiv 118 / 139 40% 1 18.09.2027 -
Catriel Cabellos Sporting Cristal Aktiv 128 / 115 40% 1 18.09.2027 -
Maizon Rodríguez Unión de Santa Fe Aktiv 113 / 131 40% 1 18.09.2027 -
Luciano Boggio Nacional Aktiv 110 / 114 40% 1 12.09.2027 -
Claudio Bravo Argentinos Juniors Aktiv 108 / 118 40% 1 12.09.2027 -
Willy Kumado San Diego Football Club Aktiv 111 / 118 40% 1 11.09.2027 -
Emiliano Álvarez Progreso Aktiv 110 / 114 40% 1 08.09.2027 -
Manuel Guillén Argentinos Juniors Aktiv 106 / 123 40% 1 08.09.2027 -
Billal Messaoudi JS Kabylie Aktiv 112 / 121 40% 1 23.08.2027 -
Giuseppe Di Serio Spezia Aktiv 117 / 130 40% 1 16.08.2027 -
Antoine Bernede Hellas Verona Aktiv 136 / 142 40% 1 16.08.2027 -
Gabriel Strefezza Palermo Aktiv 123 / 143 40% 1 10.08.2027 -
Milan van Ewijk Mansfield Town Aktiv 130 / 135 40% 2 05.08.2027 -
Lautaro Vargas Leganés Aktiv 136 / 138 40% 1 05.08.2027 -
Hwang Hee-Chan Wolverhampton Aktiv 135 / 129 40% 5 04.08.2027 -
Caolan Boyd-Munce Wycombe Wanderers Aktiv 134 / 128 40% 1 04.08.2027 -
Josh Edwards Charlton Athletic Aktiv 133 / 120 40% 1 03.08.2027 -
Ben Chrisene Norwich City Aktiv 122 / 124 40% 1 03.08.2027 -
Reda Jaadi Hapoel Kiryat Shmona Aktiv 118 / 102 62% 1 19.07.2027 Befürworten
Darlin Yongwa Norwich City Aktiv 115 / 121 40% 2 15.07.2027 -
Oswin Appollis Orlando Pirates Aktiv 140 / 125 40% 1 15.07.2027 -
Cédric Don Maccabi Haifa Aktiv 132 / 119 40% 6 14.07.2027 Beobachten
Tyler Goodrham Oxford United Aktiv 113 / 132 40% 1 14.07.2027 -
Ross McCrorie Bristol City Aktiv 139 / 135 40% 2 13.07.2027 -
Kellen Fisher Norwich City Aktiv 138 / 133 40% 2 13.07.2027 -
Tyrese Campbell Sheffield United Aktiv 118 / 141 40% 2 21.06.2027 -
Balázs Tóth Blackburn Rovers Aktiv 144 / 125 40% 1 14.06.2027 -
Daniel Iversen Preston Aktiv 121 / 126 40% 1 08.06.2027 -
Juan Mosquera Sheffield Wednesday Aktiv 133 / 113 40% 2 07.06.2027 -
Arijanet Murić Sassuolo Aktiv 142 / 132 40% 1 07.06.2027 -
Adam Randell Bristol City Aktiv 134 / 133 40% 1 07.06.2027 -
George Wickens Lincoln City Aktiv 104 / 110 40% 1 05.06.2027 -
Dean Henderson Crystal Palace Aktiv 152 / 139 40% 1 05.06.2027 -
Bradley Mabunda SuperSport United Aktiv 129 / 112 40% 1 02.06.2027 -
Grégoire Coudert Burnley Aktiv 118 / 126 40% 1 31.05.2027 -
Vladan Kovačević Norwich City Aktiv 132 / 106 40% 1 31.05.2027 -
Tiago Freitas Benfica Aktiv 107 / 112 40% 2 30.05.2027 -
Juan Giménez Celta Aktiv 117 / 110 40% 2 30.05.2027 -
Christ Inao Oulaï Fiorentina Aktiv 132 / 141 40% 2 29.05.2027 -
Finley McAllister Grimsby Town Aktiv 76 / 85 40% 1 29.05.2027 -
Davide Bartesaghi AC Milan Aktiv 140 / 137 40% 2 28.05.2027 -
Paris Maghoma Norwich City Aktiv 117 / 125 40% 1 26.05.2027 -
Leif Davis Ipswich Town Aktiv 135 / 124 40% 1 24.05.2027 -
Stanley Mills Oxford United Aktiv 118 / 122 40% 1 22.05.2027 -
Jack Diamond Stockport County Aktiv 124 / 125 40% 2 18.05.2027 -
Derry Murkin Derby County Aktiv 136 / 125 40% 2 16.05.2027 -
Ryoya Morishita Blackburn Rovers Aktiv 125 / 137 40% 2 16.05.2027 -
Tshepang Moremi Orlando Pirates Aktiv 132 / 129 40% 3 15.05.2027 -
Harry Clarke Preston Aktiv 141 / 139 40% 2 14.05.2027 -
Alessio Zerbin Frosinone Aktiv 137 / 115 40% 2 12.05.2027 -
Tatsuhiro Sakamoto Coventry City Aktiv 117 / 122 40% 2 10.05.2027 -
Richard Koné Queens Park Rangers Aktiv 122 / 121 40% 1 09.05.2027 -
Adam Bakoune Ospitaletto Aktiv 91 / 92 40% 1 09.05.2027 -
Eddy Kouadio Crotone Aktiv 95 / 97 40% 2 07.05.2027 -
Ilias Chair Queens Park Rangers Aktiv 121 / 133 40% 1 07.05.2027 -
Christos Mouzakitis Hull City Aktiv 122 / 144 40% 1 07.05.2027 -
Leandro Martins Benfica Aktiv 102 / 94 40% 2 06.05.2027 -
Marcelo Allende Mamelodi Sundowns Aktiv 149 / 124 40% 2 02.05.2027 -
Pelle Mattsson Norwich City Aktiv 122 / 137 40% 1 02.05.2027 -
Isaiah Jones Luton Town Aktiv 137 / 122 40% 2 01.05.2027 -
Giorgi Chakvetadze Watford Aktiv 116 / 122 40% 1 01.05.2027 -
Zaïd BafdilI Sporting CP Aktiv 104 / 98 40% 1 01.05.2027 -
Matvey Kislyak CSKA Moscow Aktiv 149 / 135 40% 3 29.04.2027 -
Jan Bürger Gillingham Aktiv 125 / 121 40% 1 29.04.2027 -
Ernie Weaver AFC Wimbledon Aktiv 98 / 120 40% 2 27.04.2027 -
Jack Currie Oxford United Aktiv 137 / 108 40% 1 25.04.2027 -
Manuel Benson Maccabi Haifa Aktiv 117 / 116 40% 2 23.04.2027 Mehr Infos nötig
Kristoffer Lund Birmingham Aktiv 127 / 126 40% 2 22.04.2027 -
Bertrand Traoré Sunderland Aktiv 140 / 137 40% 1 19.04.2027 -
Ronald Swansea City Aktiv 122 / 140 40% 3 18.04.2027 -
Nevot Ratner Maccabi Haifa Verloren 102 / 125 40% 1 17.04.2027 -
Koki Saito Queens Park Rangers Aktiv 116 / 129 40% 1 10.04.2027 -
Mikey Johnston West Bromwich Albion Aktiv 110 / 114 40% 1 09.04.2027 -
Josh Tymon Swansea City Aktiv 114 / 130 40% 1 08.04.2027 -
Che Adams Torino Aktiv 147 / 126 40% 2 06.04.2027 -
Edoardo Bove Watford Aktiv 117 / 134 40% 1 03.04.2027 -
Paik Seung-Ho Birmingham Aktiv 125 / 112 40% 1 02.04.2027 -
Eduardo Felicíssimo Sporting CP Aktiv 119 / 118 40% 2 31.03.2027 -
Jason Knight Bristol City Aktiv 113 / 119 40% 1 31.03.2027 -
Esequiel Barco Spartak Moscow Aktiv 152 / 137 40% 2 28.03.2027 -
Noam Ben-Harush Maccabi Haifa Aktiv 116 / 123 40% 2 28.03.2027 -
Luciano Gondou CSKA Moscow Aktiv 124 / 127 40% 6 24.03.2027 -
Lior Kasa Hapoel Kiryat Shmona Aktiv 98 / 116 40% 1 24.03.2027 -
Tristan Degreef Anderlecht Aktiv 127 / 129 40% 1 24.03.2027 -
Gaetano Castrovilli Cesena Aktiv 114 / 115 40% 3 23.03.2027 -
Batxi Krasnodar Aktiv 140 / 121 40% 1 23.03.2027 -
Emmanuel Boateng Hapoel Tel Aviv Aktiv 126 / 124 40% 6 14.03.2027 -
Edwin Asamoah Berekum Chelsea Aktiv 94 / 89 40% 2 13.03.2027 -
Siyanda Ndlovu Bloemfontein Celtic Aktiv 122 / 126 40% 2 11.03.2027 -
Gonçalo Oliveira Benfica Aktiv 106 / 111 40% 1 11.03.2027 -
Matías Gómez Granada Aktiv 109 / 131 40% 1 07.03.2027 -
Kazunari Kita Real Sociedad Aktiv 94 / 115 40% 1 07.03.2027 -
Riley Owen Trento Aktiv 114 / 98 40% 2 06.03.2027 -
Percy Jali Free State Stars Aktiv 87 / 103 40% 1 06.03.2027 -
Patrick Maswanganyi Orlando Pirates Aktiv 118 / 123 40% 2 25.02.2027 -
Bongani Modiba Black Aces Aktiv 125 / 107 40% 1 21.02.2027 -
Reda Khadra Qarabag Aktiv 117 / 128 40% 1 20.02.2027 -
Jelle Bataille Maccabi Haifa Aktiv 116 / 122 40% 2 19.02.2027 -
Anton Miranchuk Dinamo Moscow Aktiv 135 / 130 40% 1 18.02.2027 -
Bruninho Maccabi Haifa Aktiv 127 / 121 40% 1 18.02.2027 -
Christian Krasnodar Aktiv 148 / 117 40% 1 17.02.2027 -
Arthur Gomes Dinamo Moscow Aktiv 110 / 134 40% 4 09.02.2027 -
Rhys Chadwick Leyton Orient Aktiv 89 / 113 40% 1 07.02.2027 -
Mpho Khethang AS Police Aktiv 82 / 85 40% 1 04.02.2027 -
Hlompho Lorch Ajax Cape Town Aktiv 103 / 111 40% 1 03.02.2027 -
Francisco Álvarez Argentinos Juniors Aktiv 131 / 133 40% 1 27.01.2027 -
Alexandr Chernikov Krasnodar Aktiv 145 / 134 40% 1 20.01.2027 -
Guy Melamed Maccabi Haifa Aktiv 106 / 112 55% 1 18.01.2027 -
Jordan Lotomba Bloemfontein Celtic Aktiv 137 / 135 40% 1 18.01.2027 -
Manfred Ugalde Spartak Moscow Aktiv 116 / 129 40% 4 30.12.2026 -
Nahuel Ulariaga Hapoel Beer Sheva Aktiv 130 / 122 40% 2 29.12.2026 -
Ruben van Bommel Ferencvaros Aktiv 129 / 134 40% 1 25.12.2026 -
Hamode Kanaan Hapoel Beer Sheva Aktiv 118 / 115 40% 4 23.12.2026 Beobachten
Ali Youssef Apollon Aktiv 128 / 110 40% 2 23.12.2026 -
Themba Ngcobo SuperSport United Aktiv 112 / 114 40% 3 21.12.2026 -
Mariano Gómez Ferencvaros Aktiv 109 / 135 40% 1 19.12.2026 -
Ethane Azoulay Maccabi Haifa Aktiv 112 / 123 40% 1 19.12.2026 -
Egas Cacintura Spartak Moscow Aktiv 121 / 120 40% 2 14.12.2026 -
Guy Mizrahi Hapoel Beer Sheva Aktiv 119 / 118 40% 1 11.12.2026 -
Luka Kurtovic NK Domzale Aktiv 122 / 130 40% 5 07.12.2026 Beobachten
Rahim Ibrahim Slovan Bratislava Aktiv 110 / 142 40% 1 05.12.2026 -
Mojmír Chytil NK Maribor Aktiv 150 / 121 40% 4 27.11.2026 -
Samuel Kalu Botev Plovdiv Aktiv 105 / 119 40% 1 27.11.2026 -
Brayan León Mamelodi Sundowns Aktiv 127 / 110 40% 1 25.11.2026 -
Andreas Gruber DAC Dunajska Streda Aktiv 135 / 132 40% 1 20.11.2026 -
Anderson Arroyo Rubin Aktiv 115 / 127 40% 1 18.11.2026 -
James Eto'o CSKA Sofia Aktiv 105 / 128 40% 1 15.11.2026 -
Álex Centelles Levski Aktiv 121 / 116 40% 2 10.11.2026 -
Thalente Mbatha Orlando Pirates Aktiv 118 / 131 40% 1 10.11.2026 -
Veldin Hodža Rubin Aktiv 123 / 130 40% 1 07.11.2026 -
Peter Agba Maccabi Haifa Aktiv 127 / 125 40% 1 05.11.2026 -
Juan Cáceres Dinamo Moscow Aktiv 141 / 132 40% 1 05.11.2026 -
Andraž Šporar Slovan Bratislava Aktiv 137 / 127 40% 3 02.11.2026 -
Facundo Miño Deportivo Riestra Aktiv 125 / 132 40% 1 02.11.2026 -
Ivan Sergeev Dinamo Moscow Aktiv 109 / 119 40% 1 30.10.2026 -
Mykola Kukharevych Slovan Bratislava Aktiv 112 / 132 40% 3 29.10.2026 -
Denzel Jubitana Neftchi Aktiv 109 / 123 40% 1 27.10.2026 -
Mirlind Daku Spartak Moscow Aktiv 144 / 115 40% 2 25.10.2026 -
Florin Tănase Omonoia Aktiv 133 / 111 40% 2 18.10.2026 -
Dmitry Vorobjov Krasnodar Aktiv 110 / 114 40% 2 16.10.2026 -
Maksim Samorodov Akhmat Grozny Aktiv 125 / 138 40% 1 13.10.2026 -
Sam Lammers PSV Aktiv 136 / 133 40% 1 08.10.2026 -
Ammar Ramadan DAC Dunajska Streda Aktiv 124 / 133 40% 2 04.10.2026 -
Gabriel Jesus Barcelona Aktiv 163 / 148 40% 3 03.10.2026 -
Marcelo Torres Gimnasia La Plata Aktiv 112 / 102 40% 1 01.10.2026 -
Yarden Shua Beitar Jerusalem Aktiv 115 / 128 40% 2 20.09.2026 -
Leandro Godoy CSKA Sofia Aktiv 103 / 136 40% 2 19.09.2026 -
Kristian Eriksen Molde Aktiv 107 / 116 40% 1 19.09.2026 -
Juan Manuel Boselli Krasnodar Aktiv 105 / 129 40% 1 18.09.2026 -
Yaroslav Gladyshev Dinamo Moscow Aktiv 107 / 114 40% 1 15.09.2026 -
Chuchu Ramírez Nacional Aktiv 111 / 116 40% 1 13.09.2026 -
Ramiro Ruiz Rodríguez Atlético Tucumán Aktiv 126 / 135 40% 1 12.09.2026 -
Lucas Souto Defensa y Justicia Aktiv 111 / 116 40% 1 12.09.2026 -
Lee Buchanan Birmingham Aktiv 122 / 131 40% 1 12.09.2026 -
Kai Andrews Coventry City Aktiv 119 / 121 40% 1 28.08.2026 -
Tesfaldet Tekie Hammarby Aktiv 139 / 117 40% 1 04.08.2026 -
Ludovit Reis Werder Bremen Aktiv 140 / 125 40% 1 03.08.2026 -